Regional Weather Roundup
Issued by NWS

Home | Current Version | Previous Version | Graphics & Text | Print | Product List | Glossary On
Versions: 1 2 3 4 5 6 7 8 9 10 11 12 13 14 15 16 17 18 19 20 21 22 23 24 25 26 27 28 29 30 31 32 33 34 35 36 37 38 39 40 41 42 43 44 45 46 47 48 49 50
000
ASUS43 KLMK 280502
RWRKY
KENTUCKY REGIONAL WEATHER ROUNDUP
NATIONAL WEATHER SERVICE LOUISVILLE KY
1200 AM EST SAT FEB 28 2015

NOTE "FAIR" INDICATES FEW OR NO CLOUDS BELOW 12,000 FEET
WITH NO SIGNIFICANT WEATHER AND/OR OBSTRUCTIONS TO VISIBILITY.

KYZ001>023-026-027-061>063-070>075-280600-
WESTERN AND SOUTH CENTRAL KENTUCKY

CITY           SKY/WX    TMP DP  RH WIND       PRES   REMARKS
PADUCAH        MOCLDY    21  11  65 NE9       30.60F WCI  11
HENDERSON      CLEAR     19   9  63 NE7       30.64F WCI  10
OWENSBORO      CLEAR     19   8  62 NE7       30.65F WCI  10
HOPKINSVILLE   CLOUDY    22  11  63 NE9       30.59F WCI  12
BOWLING GREEN  CLOUDY    23   7  50 E6        30.63S WCI  16
GLASGOW        NOT AVBL
$$

KYZ024-025-028>034-038-045-046-053-280600-
NORTH CENTRAL KENTUCKY

CITY           SKY/WX    TMP DP  RH WIND       PRES   REMARKS
LOUISVILLE/SDF MOCLDY    20   3  48 NE6       30.66S WCI  12
LOUISVILLE/LOU PTCLDY    20   2  45 NE7       30.66S WCI  11
FORT KNOX      CLOUDY    20   5  51 NE5       30.61S WCI  14
$$

KYZ035>037-039>044-047>052-055>060-089>105-280600-
NORTHEAST KENTUCKY

CITY           SKY/WX    TMP DP  RH WIND       PRES   REMARKS
LEXINGTON      MOCLDY    18   6  59 E10       30.62F WCI   6
COVINGTON      MOCLDY    13   1  59 E7        30.65R WCI   3
FRANKFORT        N/A     18   2  49 N6        30.63S WCI  10
$$

KYZ054-064>069-076>088-106>120-280600-
SOUTHEAST KENTUCKY

CITY           SKY/WX    TMP DP  RH WIND       PRES   REMARKS
JACKSON        MOCLDY    18   6  59 NE3       30.58S
LONDON         PTCLDY    19   4  51 NE5       30.57F WCI  12
SOMERSET       NOT AVBL
MIDDLESBORO    MOCLDY    23  10  56 CALM      30.57S
MONTICELLO     PTCLDY    19   8  62 NE6       30.62F WCI  11
$$



USA.gov is the U.S. government's official web portal to all federal, state and local government web resources and services.